Weather in Insar-Akshino

Russia / Republic of Mordovia     54°00′30″N   44°46′37″E
temp.,
°C
wind,
m/s
gust,
m/s
humid.,
%
clouds,
%
prec.,
mm/h
press.,
hPa
HPBL,
m
4 march, thu
thu400:00−6wsw6129566 0.1 1009291
03:00−3wsw7129483 0.3 1007665
06:00−2wsw71394100 0.3 1005820
09:00−1wsw91592100 0.4 1002909
12:000wsw101697100 0.7 1000950
15:000wsw101688100 0.7 10001066
18:00−1w81496100 0.6 1000783
21:00−2wsw61097100 1.8 1000521
5 march, fri
fri500:00−3n2498100 1.9 1000180
03:00−4n2397100 3.1 1000107
06:00−5n2397100 0.7 100278
09:00−5n3495100 0.9 1004204
12:00−5nnw248982 0.1 1007353
15:00−4wnw358784 0.1 1009651
18:00−8wsw349212 0.0 101029
21:00−9wsw479523 0.0 1013108
6 march, sat
sat600:00−11w479776 0.0 1013109
03:00−13w449672 0.1 101564
06:00−15nw339728 0.0 101621
09:00−12nnw239533 0.0 101798
12:00−10nne227966 0.0 1017272
15:00−9nne128046 0.0 1016308
18:00−15ese11870 0.0 101521
21:00−15sw128323 0.0 101620
7 march, sun
sun700:00−14sw238477 0.0 101528
03:00−13sw379688 0.1 1015149
06:00−12wsw499591 0.2 1014214
09:00−12wsw589593 0.2 1013270
12:00−7sw7128351 0.0 1010766
15:00−7sw9159176 0.1 1007937
18:00−6sw101893100 0.3 10031135
21:00−5sw101694100 1.4 10001028
8 march, mon
mon800:00−7w61281100 0.9 1000612
03:00−12wsw5108867 0.9 1002145
06:00−13sw511830 0.0 1002154
09:00−10ssw511740 0.0 1001249
12:00−5ssw599467 0.3 997697
15:00−6wnw13178683 1.7 9971118
18:00−10w8168656 0.0 1001708
21:00−9w10178878 0.1 1005811